CFE787 EGLC-EGPH

Flight info

Callsign CFE787
Flight time 0h 54m
Altitude 36000
Route BPK N601 PIPIN UN601 RIBEL DCT INPIP
Aircraft E190/M-SDE3GILORVW/S

Departure

Time 2026-04-26 12:06
Airport London City Airport (EGLC)

Arrival

Time 2026-04-26 13:00
Airport Edinburgh Airport (EGPH)
Time Latitude Longitude Altitude Speed Heading
2026-04-26 11:43 51.50406 0.05199 24 ft 0 kts 323°
2026-04-26 12:04 51.50414 0.05191 24 ft 4 kts 330°
2026-04-26 12:04 51.50447 0.05154 27 ft 6 kts 291°
2026-04-26 12:04 51.50453 0.05061 26 ft 10 kts 272°
2026-04-26 12:04 51.50463 0.04928 27 ft 15 kts 271°
2026-04-26 12:05 51.50469 0.04728 24 ft 21 kts 273°
2026-04-26 12:05 51.50478 0.04496 24 ft 14 kts 281°
2026-04-26 12:05 51.50538 0.04443 24 ft 11 kts 17°
2026-04-26 12:05 51.50554 0.04534 24 ft 13 kts 94°
2026-04-26 12:06 51.50540 0.04970 24 ft 77 kts 92°
2026-04-26 12:06 51.50501 0.06223 96 ft 138 kts 92°
2026-04-26 12:06 51.50450 0.07810 821 ft 147 kts 93°
2026-04-26 12:06 51.50399 0.09542 1657 ft 159 kts 86°
2026-04-26 12:07 51.50782 0.11211 2627 ft 165 kts 58°
2026-04-26 12:07 51.51670 0.12482 2929 ft 176 kts 26°
2026-04-26 12:07 51.52883 0.12741 3095 ft 183 kts 355°
2026-04-26 12:07 51.54037 0.11893 3093 ft 190 kts 325°
2026-04-26 12:08 51.55091 0.10500 3066 ft 203 kts 320°
2026-04-26 12:08 51.56163 0.08959 2974 ft 201 kts 319°
2026-04-26 12:08 51.57165 0.07516 2977 ft 188 kts 320°
2026-04-26 12:08 51.58156 0.06198 2990 ft 184 kts 322°
2026-04-26 12:09 51.59199 0.05004 2993 ft 185 kts 330°
2026-04-26 12:09 51.60325 0.03970 2958 ft 188 kts 333°
2026-04-26 12:09 51.61462 0.02925 2927 ft 189 kts 331°
2026-04-26 12:09 51.62628 0.01809 3061 ft 201 kts 330°
2026-04-26 12:10 51.63852 0.00589 3141 ft 210 kts 329°
2026-04-26 12:10 51.65047 -0.00631 3203 ft 206 kts 328°
2026-04-26 12:10 51.66224 -0.01836 3194 ft 197 kts 329°
2026-04-26 12:10 51.67439 -0.03043 2844 ft 215 kts 329°
2026-04-26 12:11 51.68748 -0.04355 3527 ft 228 kts 329°
2026-04-26 12:11 51.70193 -0.05774 3930 ft 257 kts 329°
2026-04-26 12:11 51.71773 -0.07344 3290 ft 278 kts 329°
2026-04-26 12:11 51.73419 -0.08989 3018 ft 273 kts 329°
2026-04-26 12:12 51.74988 -0.10581 3391 ft 261 kts 328°
2026-04-26 12:12 51.76601 -0.12171 4223 ft 276 kts 330°
2026-04-26 12:12 51.78272 -0.13741 5427 ft 277 kts 330°
2026-04-26 12:12 51.79378 -0.14779 6200 ft 278 kts 330°
2026-04-26 12:13 51.81603 -0.16893 7686 ft 278 kts 329°
2026-04-26 12:13 51.83280 -0.18484 8688 ft 281 kts 329°
2026-04-26 12:13 51.84980 -0.20101 9658 ft 286 kts 329°
2026-04-26 12:13 51.86722 -0.21753 10426 ft 299 kts 329°
2026-04-26 12:14 51.88565 -0.23510 11069 ft 315 kts 328°
2026-04-26 12:14 51.90476 -0.25337 11942 ft 322 kts 328°
2026-04-26 12:14 51.92415 -0.27186 12940 ft 325 kts 328°
2026-04-26 12:14 51.94373 -0.29058 13931 ft 329 kts 328°
2026-04-26 12:15 51.96358 -0.30956 14906 ft 334 kts 327°
2026-04-26 12:15 51.98371 -0.32889 15876 ft 338 kts 327°
2026-04-26 12:15 52.00413 -0.34844 16775 ft 343 kts 327°
2026-04-26 12:15 52.02481 -0.36826 17673 ft 346 kts 327°
2026-04-26 12:16 52.04533 -0.38793 18610 ft 348 kts 327°
2026-04-26 12:16 52.06656 -0.40833 19460 ft 352 kts 326°
2026-04-26 12:16 52.08779 -0.42878 20287 ft 356 kts 326°
2026-04-26 12:16 52.10916 -0.44949 21059 ft 360 kts 326°
2026-04-26 12:17 52.13047 -0.47028 21784 ft 363 kts 326°
2026-04-26 12:17 52.15228 -0.49154 22476 ft 367 kts 326°
2026-04-26 12:17 52.17421 -0.51299 23145 ft 370 kts 326°
2026-04-26 12:17 52.19646 -0.53467 23826 ft 374 kts 326°
2026-04-26 12:18 52.21882 -0.55655 24495 ft 377 kts 326°
2026-04-26 12:18 52.24135 -0.57861 25172 ft 379 kts 326°
2026-04-26 12:18 52.26411 -0.60077 25827 ft 382 kts 326°
2026-04-26 12:18 52.28701 -0.62310 26424 ft 385 kts 326°
2026-04-26 12:19 52.31006 -0.64556 27023 ft 387 kts 326°
2026-04-26 12:19 52.33322 -0.66818 27595 ft 389 kts 326°
2026-04-26 12:19 52.35647 -0.69099 28127 ft 391 kts 326°
2026-04-26 12:19 52.37991 -0.71398 28646 ft 393 kts 326°
2026-04-26 12:20 52.40343 -0.73709 29134 ft 396 kts 326°
2026-04-26 12:20 52.42709 -0.76033 29671 ft 395 kts 325°
2026-04-26 12:20 52.45063 -0.78350 30185 ft 396 kts 325°
2026-04-26 12:20 52.47430 -0.80684 30665 ft 397 kts 325°
2026-04-26 12:21 52.49813 -0.83041 30922 ft 403 kts 325°
2026-04-26 12:21 52.54725 -0.87900 31298 ft 417 kts 325°
2026-04-26 12:21 52.57202 -0.90351 31789 ft 415 kts 325°
2026-04-26 12:22 52.59668 -0.92796 32226 ft 413 kts 325°
2026-04-26 12:22 52.62127 -0.95238 32608 ft 413 kts 325°
2026-04-26 12:22 52.64582 -0.97677 32995 ft 412 kts 325°
2026-04-26 12:22 52.67037 -1.00121 33367 ft 412 kts 325°
2026-04-26 12:23 52.69487 -1.02560 33734 ft 411 kts 325°
2026-04-26 12:23 52.71931 -1.05003 34092 ft 410 kts 325°
2026-04-26 12:23 52.74374 -1.07448 34431 ft 410 kts 325°
2026-04-26 12:23 52.76815 -1.09889 34734 ft 410 kts 325°
2026-04-26 12:24 52.79256 -1.12328 35059 ft 410 kts 325°
2026-04-26 12:24 52.81694 -1.14772 35369 ft 409 kts 325°
2026-04-26 12:24 52.84127 -1.17219 35676 ft 409 kts 325°
2026-04-26 12:25 52.88977 -1.22108 36267 ft 408 kts 325°
2026-04-26 12:25 52.91404 -1.24550 36442 ft 412 kts 325°
2026-04-26 12:25 52.96384 -1.29595 36361 ft 427 kts 325°
2026-04-26 12:26 53.01459 -1.34743 36311 ft 428 kts 325°
2026-04-26 12:26 53.06521 -1.39889 36320 ft 429 kts 325°
2026-04-26 12:27 53.11631 -1.45092 36307 ft 429 kts 325°
2026-04-26 12:27 53.16712 -1.50287 36293 ft 428 kts 325°
2026-04-26 12:28 53.21788 -1.55489 36299 ft 428 kts 325°
2026-04-26 12:28 53.26857 -1.60707 36303 ft 428 kts 325°
2026-04-26 12:29 53.31926 -1.65937 36299 ft 428 kts 325°
2026-04-26 12:30 53.39527 -1.73808 36306 ft 428 kts 325°
2026-04-26 12:30 53.44588 -1.79058 36309 ft 428 kts 325°
2026-04-26 12:31 53.52178 -1.86968 36307 ft 428 kts 325°
2026-04-26 12:31 53.57232 -1.92239 36299 ft 428 kts 324°
2026-04-26 12:32 53.62293 -1.97545 36297 ft 428 kts 324°
2026-04-26 12:33 53.69873 -2.05531 36295 ft 429 kts 324°
2026-04-26 12:33 53.75003 -2.10674 36311 ft 431 kts 332°
2026-04-26 12:34 53.80585 -2.14534 36297 ft 434 kts 334°
2026-04-26 12:34 53.86186 -2.18306 36293 ft 433 kts 334°
2026-04-26 12:35 53.91775 -2.22138 36296 ft 433 kts 334°
2026-04-26 12:35 53.97353 -2.25991 36294 ft 433 kts 334°
2026-04-26 12:36 54.02937 -2.29851 36296 ft 434 kts 334°
2026-04-26 12:36 54.08492 -2.33690 36299 ft 434 kts 334°
2026-04-26 12:37 54.14088 -2.37565 36299 ft 434 kts 334°
2026-04-26 12:37 54.19685 -2.41453 36295 ft 435 kts 334°
2026-04-26 12:38 54.25284 -2.45349 36295 ft 434 kts 334°
2026-04-26 12:38 54.30878 -2.49256 36297 ft 435 kts 333°
2026-04-26 12:39 54.36476 -2.53183 36285 ft 435 kts 333°
2026-04-26 12:39 54.39280 -2.55151 36008 ft 435 kts 333°
2026-04-26 12:39 54.42063 -2.57104 35766 ft 428 kts 333°
2026-04-26 12:39 54.44824 -2.59048 35169 ft 432 kts 333°
2026-04-26 12:40 54.47598 -2.61009 34591 ft 430 kts 333°
2026-04-26 12:40 54.50368 -2.62969 33991 ft 429 kts 333°
2026-04-26 12:40 54.53119 -2.64914 33418 ft 428 kts 333°
2026-04-26 12:40 54.55875 -2.66868 32858 ft 429 kts 333°
2026-04-26 12:41 54.58644 -2.68833 32279 ft 431 kts 333°
2026-04-26 12:41 54.61423 -2.70807 31698 ft 432 kts 333°
2026-04-26 12:41 54.63300 -2.72144 31316 ft 432 kts 333°
2026-04-26 12:41 54.66991 -2.74772 30546 ft 434 kts 333°
2026-04-26 12:42 54.69777 -2.76764 29953 ft 432 kts 332°
2026-04-26 12:42 54.71645 -2.78104 29575 ft 429 kts 333°
2026-04-26 12:42 54.74392 -2.80064 29003 ft 425 kts 333°
2026-04-26 12:42 54.77081 -2.81987 28448 ft 422 kts 333°
2026-04-26 12:43 54.79783 -2.83925 27889 ft 420 kts 333°
2026-04-26 12:43 54.82474 -2.85857 27334 ft 417 kts 333°
2026-04-26 12:43 54.85147 -2.87781 26779 ft 414 kts 333°
2026-04-26 12:43 54.87802 -2.89693 26214 ft 412 kts 333°
2026-04-26 12:44 54.90436 -2.91595 25651 ft 409 kts 333°
2026-04-26 12:44 54.93065 -2.93498 25070 ft 407 kts 334°
2026-04-26 12:44 54.95668 -2.95380 24487 ft 404 kts 334°
2026-04-26 12:44 54.98252 -2.97257 23920 ft 401 kts 334°
2026-04-26 12:45 55.00814 -2.99116 23358 ft 398 kts 334°
2026-04-26 12:45 55.03358 -3.00967 22794 ft 395 kts 334°
2026-04-26 12:45 55.05882 -3.02804 22247 ft 392 kts 334°
2026-04-26 12:45 55.08386 -3.04628 21686 ft 388 kts 334°
2026-04-26 12:46 55.10865 -3.06440 21146 ft 385 kts 334°
2026-04-26 12:46 55.13332 -3.08241 20601 ft 382 kts 334°
2026-04-26 12:46 55.15783 -3.10033 19938 ft 381 kts 334°
2026-04-26 12:46 55.18240 -3.11837 19314 ft 389 kts 334°
2026-04-26 12:47 55.20758 -3.13687 18523 ft 394 kts 334°
2026-04-26 12:47 55.23279 -3.15539 17785 ft 392 kts 334°
2026-04-26 12:47 55.25784 -3.17388 17032 ft 389 kts 334°
2026-04-26 12:47 55.28271 -3.19214 16301 ft 385 kts 334°
2026-04-26 12:48 55.30718 -3.21034 15733 ft 380 kts 332°
2026-04-26 12:48 55.33023 -3.23255 15161 ft 376 kts 325°
2026-04-26 12:48 55.35222 -3.25709 14691 ft 374 kts 324°
2026-04-26 12:48 55.37435 -3.28126 14188 ft 373 kts 326°
2026-04-26 12:49 55.39656 -3.30467 13694 ft 371 kts 326°
2026-04-26 12:49 55.41869 -3.32783 13197 ft 369 kts 326°
2026-04-26 12:49 55.44075 -3.35074 12723 ft 367 kts 327°
2026-04-26 12:49 55.46272 -3.37350 12238 ft 365 kts 327°
2026-04-26 12:50 55.48456 -3.39613 11745 ft 363 kts 327°
2026-04-26 12:50 55.50626 -3.41866 11257 ft 362 kts 327°
2026-04-26 12:50 55.52790 -3.44109 10800 ft 359 kts 327°
2026-04-26 12:50 55.54940 -3.46343 10297 ft 357 kts 327°
2026-04-26 12:51 55.57066 -3.48552 9425 ft 346 kts 327°
2026-04-26 12:51 55.59128 -3.50704 8666 ft 339 kts 327°
2026-04-26 12:51 55.61094 -3.52753 8475 ft 319 kts 327°
2026-04-26 12:51 55.62930 -3.54663 8565 ft 293 kts 327°
2026-04-26 12:52 55.64656 -3.56471 8229 ft 287 kts 326°
2026-04-26 12:52 55.66237 -3.58662 7532 ft 291 kts 313°
2026-04-26 12:52 55.67615 -3.61120 7099 ft 273 kts 312°
2026-04-26 12:52 55.68928 -3.63416 6760 ft 258 kts 313°
2026-04-26 12:53 55.70242 -3.65461 6408 ft 247 kts 322°
2026-04-26 12:53 55.71703 -3.66939 6142 ft 236 kts 330°
2026-04-26 12:53 55.73140 -3.68210 5913 ft 227 kts 329°
2026-04-26 12:53 55.74524 -3.69509 5714 ft 224 kts 328°
2026-04-26 12:54 55.75869 -3.70834 5763 ft 221 kts 327°
2026-04-26 12:54 55.77226 -3.72213 5691 ft 229 kts 327°
2026-04-26 12:54 55.78609 -3.73638 5414 ft 229 kts 327°
2026-04-26 12:54 55.79975 -3.75019 5084 ft 223 kts 330°
2026-04-26 12:55 55.81479 -3.75430 4668 ft 228 kts
2026-04-26 12:55 55.82819 -3.73850 4042 ft 240 kts 52°
2026-04-26 12:55 55.83548 -3.71269 3879 ft 225 kts 70°
2026-04-26 12:55 55.84164 -3.68857 3786 ft 208 kts 60°
2026-04-26 12:56 55.84948 -3.66763 3594 ft 199 kts 56°
2026-04-26 12:56 55.85659 -3.64718 3388 ft 191 kts 61°
2026-04-26 12:56 55.86327 -3.62664 3184 ft 193 kts 59°
2026-04-26 12:56 55.87037 -3.60630 2936 ft 194 kts 59°
2026-04-26 12:57 55.87733 -3.58584 2698 ft 198 kts 60°
2026-04-26 12:57 55.88458 -3.56480 2418 ft 194 kts 60°
2026-04-26 12:57 55.89128 -3.54524 2161 ft 177 kts 60°
2026-04-26 12:58 55.90324 -3.51012 1704 ft 155 kts 59°
2026-04-26 12:58 55.90872 -3.49404 1503 ft 149 kts 59°
2026-04-26 12:58 55.91412 -3.47821 1315 ft 150 kts 58°
2026-04-26 12:58 55.91951 -3.46226 1128 ft 150 kts 59°
2026-04-26 12:59 55.92477 -3.44670 909 ft 142 kts 58°
2026-04-26 12:59 55.92976 -3.43221 720 ft 132 kts 58°
2026-04-26 12:59 55.93433 -3.41868 560 ft 125 kts 58°
2026-04-26 12:59 55.93886 -3.40546 371 ft 124 kts 58°
2026-04-26 13:00 55.94333 -3.39232 214 ft 124 kts 59°
2026-04-26 13:00 55.94769 -3.37938 112 ft 113 kts 58°
2026-04-26 13:00 55.95095 -3.36960 107 ft 67 kts 58°
2026-04-26 13:00 55.95255 -3.36489 104 ft 23 kts 64°
2026-04-26 13:01 55.95183 -3.36342 106 ft 13 kts 150°
2026-04-26 13:01 55.95138 -3.36235 106 ft 12 kts 110°
2026-04-26 13:01 55.95109 -3.36076 106 ft 15 kts 108°
2026-04-26 13:01 55.95070 -3.35914 106 ft 14 kts 117°
2026-04-26 13:02 55.94999 -3.35850 106 ft 14 kts 206°
2026-04-26 13:02 55.94916 -3.35801 106 ft 15 kts 120°
2026-04-26 13:02 55.94870 -3.35654 106 ft 11 kts 118°
2026-04-26 13:02 55.94833 -3.35652 106 ft 6 kts 209°
2026-04-26 13:03 55.94806 -3.35678 106 ft 1 kts 208°
2026-04-26 13:03 55.94797 -3.35687 106 ft 0 kts 208°